When you browse on this site, cookies collect data to enhance your experience and personalize the content and advertising you see.
Visit our Privacy Policy to learn more. By continuing to use the site, you agree to this use of cookies and data.
  • In Sweden
  • List of Countries
  • For 7 days
  • Water Temperature
  • Weather Map
  • Weather Widgets
  • user-avatar
    Login

    Hourly Weather Zacatecas

    Today, 26 February, Wednesday

    Time Temperature Precipitation Wind Pressure Humidity
    00:00 +11°C° 0 mm 1 mps 585 mmHg 34%
    01:00 +11°C° 0 mm 1 mps 585 mmHg 33%
    02:00 +10°C° 0 mm 1 mps 585 mmHg 33%
    03:00 +10°C° 0 mm 1 mps 585 mmHg 33%
    04:00 +9°C° 0 mm 1 mps 585 mmHg 33%
    05:00 +8°C° 0 mm 2 mps 585 mmHg 33%
    06:00 +8°C° 0 mm 3 mps 586 mmHg 33%
    07:00 +7°C° 0 mm 4 mps 587 mmHg 33%
    08:00 +7°C° 0 mm 5 mps 588 mmHg 33%
    09:00 +9°C° 0 mm 5 mps 589 mmHg 32%
    10:00 +10°C° 0 mm 5 mps 589 mmHg 31%
    11:00 +12°C° 0 mm 5 mps 590 mmHg 30%
    12:00 +13°C° 0 mm 5 mps 589 mmHg 29%
    13:00 +14°C° 0 mm 4 mps 589 mmHg 28%
    14:00 +15°C° 0 mm 4 mps 589 mmHg 27%
    15:00 +15°C° 0 mm 4 mps 589 mmHg 27%
    16:00 +15°C° 0 mm 5 mps 588 mmHg 28%
    17:00 +14°C° 0 mm 5 mps 588 mmHg 29%
    18:00 +13°C° 0 mm 5 mps 588 mmHg 33%
    19:00 +11°C° 0 mm 4 mps 588 mmHg 37%
    20:00 +8°C° 0 mm 4 mps 589 mmHg 40%
    21:00 +7°C° 0 mm 4 mps 588 mmHg 44%
    22:00 +7°C° 0 mm 3 mps 588 mmHg 48%
    23:00 +6°C° 0 mm 2 mps 588 mmHg 52%

    Tomorrow, 27 February, Thursday

    Time Temperature Precipitation Wind Pressure Humidity
    00:00 +6°C° 0 mm 2 mps 588 mmHg 56%
    01:00 +5°C° 0 mm 2 mps 588 mmHg 61%
    02:00 +4°C° 0 mm 2 mps 587 mmHg 66%
    03:00 +5°C° 0 mm 1 mps 587 mmHg 69%
    04:00 +4°C° 0 mm 1 mps 587 mmHg 73%
    05:00 +4°C° 0 mm 1 mps 586 mmHg 77%
    06:00 +5°C° 0 mm 1 mps 587 mmHg 72%
    07:00 +6°C° 0 mm 1 mps 588 mmHg 67%
    08:00 +7°C° 0 mm 1 mps 589 mmHg 62%
    09:00 +10°C° 0 mm 1 mps 589 mmHg 53%
    10:00 +12°C° 0 mm 1 mps 590 mmHg 44%
    11:00 +15°C° 0 mm 1 mps 591 mmHg 36%
    12:00 +18°C° 0 mm 1 mps 591 mmHg 31%
    13:00 +19°C° 0 mm 2 mps 591 mmHg 26%
    14:00 +21°C° 0 mm 2 mps 591 mmHg 21%
    15:00 +21°C° 0 mm 3 mps 591 mmHg 21%
    16:00 +21°C° 0 mm 3 mps 591 mmHg 20%
    17:00 +21°C° 0 mm 4 mps 591 mmHg 20%
    18:00 +19°C° 0 mm 3 mps 590 mmHg 25%
    19:00 +17°C° 0 mm 2 mps 590 mmHg 30%
    20:00 +15°C° 0 mm 1 mps 590 mmHg 35%
    21:00 +14°C° 0 mm 2 mps 590 mmHg 36%
    22:00 +13°C° 0 mm 2 mps 590 mmHg 37%
    23:00 +12°C° 0 mm 2 mps 590 mmHg 38%

    Day after tomorrow, 28 February, Friday

    Time Temperature Precipitation Wind Pressure Humidity
    00:00 +10°C° 0 mm 2 mps 589 mmHg 39%
    01:00 +9°C° 0 mm 2 mps 589 mmHg 40%
    02:00 +9°C° 0 mm 2 mps 589 mmHg 40%
    03:00 +8°C° 0 mm 2 mps 589 mmHg 42%
    04:00 +9°C° 0 mm 1 mps 588 mmHg 43%
    05:00 +8°C° 0 mm 1 mps 588 mmHg 44%
    06:00 +9°C° 0 mm 1 mps 589 mmHg 42%
    07:00 +10°C° 0 mm 1 mps 590 mmHg 39%
    08:00 +12°C° 0 mm 1 mps 591 mmHg 36%
    09:00 +14°C° 0 mm 1 mps 592 mmHg 33%
    10:00 +16°C° 0 mm 2 mps 592 mmHg 30%
    11:00 +18°C° 0 mm 2 mps 593 mmHg 28%
    12:00 +20°C° 0 mm 1 mps 593 mmHg 26%
    13:00 +21°C° 0 mm 1 mps 592 mmHg 24%
    14:00 +20°C° 0 mm 0 mps 592 mmHg 22%
    15:00 +22°C° 0 mm 1 mps 592 mmHg 21%
    16:00 +23°C° 0 mm 1 mps 592 mmHg 21%
    17:00 +23°C° 0 mm 2 mps 592 mmHg 20%
    18:00 +20°C° 0 mm 2 mps 592 mmHg 24%
    19:00 +19°C° 0 mm 1 mps 591 mmHg 28%
    20:00 +16°C° 0 mm 1 mps 591 mmHg 32%
    21:00 +15°C° 0 mm 2 mps 591 mmHg 32%
    22:00 +14°C° 0 mm 2 mps 591 mmHg 32%
    23:00 +14°C° 0 mm 2 mps 591 mmHg 32%

    29 February, Saturday

    Time Temperature Precipitation Wind Pressure Humidity
    00:00 +13°C° 0 mm 2 mps 590 mmHg 37%
    01:00 +12°C° 0 mm 1 mps 590 mmHg 42%
    02:00 +10°C° 0 mm 0 mps 589 mmHg 47%
    03:00 +10°C° 0 mm 1 mps 589 mmHg 49%
    04:00 +10°C° 0 mm 1 mps 589 mmHg 51%
    05:00 +9°C° 0 mm 1 mps 588 mmHg 54%
    06:00 +11°C° 0 mm 1 mps 589 mmHg 50%
    07:00 +12°C° 0 mm 1 mps 590 mmHg 46%
    08:00 +13°C° 0 mm 1 mps 591 mmHg 42%
    09:00 +16°C° 0 mm 2 mps 592 mmHg 35%
    10:00 +19°C° 0 mm 3 mps 593 mmHg 28%
    11:00 +22°C° 0 mm 4 mps 593 mmHg 21%
    12:00 +23°C° 0 mm 4 mps 593 mmHg 19%
    13:00 +25°C° 0 mm 5 mps 592 mmHg 17%
    14:00 +26°C° 0 mm 5 mps 592 mmHg 15%
    15:00 +25°C° 0 mm 5 mps 592 mmHg 16%
    16:00 +25°C° 0 mm 5 mps 591 mmHg 17%
    17:00 +23°C° 0 mm 5 mps 591 mmHg 18%
    18:00 +21°C° 0 mm 5 mps 590 mmHg 23%
    19:00 +20°C° 0 mm 5 mps 590 mmHg 27%
    20:00 +18°C° 0 mm 4 mps 590 mmHg 31%
    21:00 +17°C° 0 mm 4 mps 590 mmHg 34%
    22:00 +16°C° 0 mm 3 mps 590 mmHg 36%
    23:00 +15°C° 0 mm 2 mps 589 mmHg 39%

    1 March, Sunday

    Time Temperature Precipitation Wind Pressure Humidity
    00:00 +14°C° 0 mm 2 mps 589 mmHg 41%
    01:00 +14°C° 0 mm 2 mps 588 mmHg 43%
    02:00 +13°C° 0 mm 2 mps 588 mmHg 45%
    03:00 +13°C° 0 mm 2 mps 588 mmHg 46%
    04:00 +12°C° 0 mm 2 mps 588 mmHg 47%
    05:00 +12°C° 0 mm 2 mps 588 mmHg 48%
    06:00 +13°C° 0 mm 2 mps 589 mmHg 44%
    07:00 +15°C° 0 mm 2 mps 590 mmHg 39%
    08:00 +16°C° 0 mm 2 mps 591 mmHg 35%
    09:00 +19°C° 0 mm 4 mps 592 mmHg 29%
    10:00 +21°C° 0 mm 5 mps 592 mmHg 24%
    11:00 +24°C° 0 mm 6 mps 593 mmHg 18%
    12:00 +24°C° 0 mm 7 mps 592 mmHg 18%
    13:00 +26°C° 0 mm 8 mps 592 mmHg 17%
    14:00 +27°C° 0 mm 9 mps 591 mmHg 16%
    15:00 +26°C° 0 mm 8 mps 590 mmHg 18%
    16:00 +24°C° 0 mm 8 mps 590 mmHg 19%
    17:00 +23°C° 0 mm 7 mps 589 mmHg 21%
    18:00 +21°C° 0 mm 6 mps 589 mmHg 26%
    19:00 +19°C° 0 mm 6 mps 589 mmHg 30%
    20:00 +16°C° 0 mm 5 mps 588 mmHg 35%
    21:00 +15°C° 0 mm 4 mps 588 mmHg 36%
    22:00 +15°C° 0 mm 4 mps 588 mmHg 36%
    23:00 +14°C° 0 mm 4 mps 588 mmHg 37%

    2 March, Monday

    Time Temperature Precipitation Wind Pressure Humidity
    00:00 +14°C° 0 mm 4 mps 588 mmHg 38%
    01:00 +13°C° 0 mm 4 mps 587 mmHg 40%
    02:00 +12°C° 0 mm 4 mps 587 mmHg 41%
    03:00 +12°C° 0 mm 4 mps 587 mmHg 42%
    04:00 +12°C° 0 mm 4 mps 586 mmHg 43%
    05:00 +11°C° 0 mm 4 mps 586 mmHg 44%
    06:00 +13°C° 0 mm 5 mps 587 mmHg 38%
    07:00 +14°C° 0 mm 6 mps 588 mmHg 33%
    08:00 +16°C° 0 mm 6 mps 589 mmHg 27%
    09:00 +18°C° 0 mm 8 mps 590 mmHg 23%
    10:00 +22°C° 0 mm 10 mps 591 mmHg 18%
    11:00 +24°C° 0 mm 11 mps 591 mmHg 14%
    12:00 +24°C° 0 mm 12 mps 590 mmHg 14%
    13:00 +26°C° 0 mm 12 mps 590 mmHg 13%
    14:00 +26°C° 0 mm 12 mps 589 mmHg 13%
    15:00 +24°C° 0 mm 12 mps 589 mmHg 15%
    16:00 +23°C° 0 mm 12 mps 588 mmHg 16%
    17:00 +22°C° 0 mm 11 mps 588 mmHg 17%
    18:00 +19°C° 0 mm 9 mps 588 mmHg 20%
    19:00 +17°C° 0 mm 7 mps 587 mmHg 23%
    20:00 +16°C° 0 mm 5 mps 587 mmHg 26%
    21:00 +15°C° 0 mm 5 mps 587 mmHg 28%
    22:00 +14°C° 0 mm 5 mps 587 mmHg 30%
    23:00 +13°C° 0 mm 5 mps 587 mmHg 31%
    Show more